Location: *
(49.9853°N, 3.5569°E)
Time: 08:25:37
(UTC+00:00)

Cosmos 2297 Rocket - Pass Details

Date: 22 September 2019
Orbit: 841 x 842 km, 71.0° (Epoch: 22 October)

Event Time Altitude Azimuth Distance (km) Brightness Sun altitude
Rises 19:55:54 0° 219° (SW) 3,387 5.5 -21.1°
Reaches altitude 10° 19:58:22 10° 222° (SW) 2,456 4.8 -21.5°
Maximum altitude 20:03:57 62° 303° (WNW) 950 2.7 -22.3°
Drops below altitude 10° 20:09:35 10° 24° (NNE) 2,471 4.7 -23.0°
Sets 20:12:04 0° 28° (NNE) 3,410 5.4 -23.4°
